[[{"header":{"parameterUnit":"m.s-1","parameterCategory":1,"la1":30.2992,"la2":30.254,"lo1":-89.0895,"lo2":-89.0443,"dy":0.0025,"dx":0.0025,"nx":19,"ny":19,"refTime":"2026-05-03T09:00:00:Z","depth":0,"parameterNumber":2,"parameterNumberName":"U-component_of_WINDS"},"data":[0,0,0,-0.8586,-0.8587,-0.8657,-0.8657,-0.8729,-0.873,0,0,0,0,0,0,0,0,0,0,0,-0.8555,-0.8555,-0.8586,-0.8587,-0.8657,-0.8657,-0.8729,-0.873,0,0,0,0,0,0,0,0,0,0,0,-0.8555,-0.8555,-0.8556,-0.8587,-0.8657,-0.8657,-0.8729,-0.8682,0,0,0,0,0,0,0,0,0,0,-0.8618,-0.858,-0.8555,-0.8556,-0.8588,-0.8657,-0.8657,-0.8681,-0.8685,-0.8691,0,-0.8693,0,-0.8713,-0.8734,-0.8734,0,0,0,-0.8594,-0.8576,-0.8604,-0.8556,-0.8588,-0.8657,-0.8627,-0.8683,-0.8689,-0.8697,-0.8694,-0.8697,-0.8714,-0.8734,-0.8734,-0.8742,-0.8742,0,0,-0.859,-0.8562,-0.86,-0.8607,-0.8595,-0.8625,-0.8629,-0.8687,-0.8682,-0.8695,-0.8699,-0.8715,-0.8734,-0.8735,-0.8742,-0.8742,0,0,0,-0.8575,-0.8559,-0.8586,-0.8603,-0.8617,-0.8627,-0.8632,-0.8679,-0.8691,-0.87,-0.8716,-0.8735,-0.8735,-0.8743,-0.8742,-0.8699,0,0,0,-0.8573,-0.855,-0.8584,-0.8567,-0.8616,-0.8649,-0.8623,-0.8687,-0.8694,-0.8715,-0.8735,-0.8736,-0.8743,-0.8742,-0.8701,-0.8683,0,0,0,-0.8554,-0.8548,-0.8555,-0.8566,-0.8595,-0.8649,-0.8664,-0.8689,-0.8703,-0.8734,-0.8736,-0.8743,-0.8742,-0.8703,-0.8686,-0.8676,0,0,0,-0.8526,-0.8516,-0.8554,-0.8548,-0.8594,-0.8623,-0.8664,-0.8686,-0.8708,-0.8735,-0.8743,-0.8742,-0.8704,-0.8688,-0.8678,-0.8662,-0.8653,0,0,-0.8497,-0.8511,-0.8511,-0.8547,-0.8561,-0.8614,-0.8622,-0.8669,-0.8697,-0.8725,-0.8726,-0.8701,-0.8686,-0.8677,-0.8615,-0.8608,0,0,0,-0.8492,-0.8491,-0.8501,-0.852,-0.8556,-0.8584,-0.8632,-0.865,-0.8675,-0.8706,-0.8696,-0.8689,-0.8684,-0.8677,-0.8671,-0.8669,-0.8738,-0.8738,-0.8739,-0.8409,-0.8447,-0.8448,-0.8494,-0.8513,-0.8563,-0.8581,-0.8613,-0.8645,-0.8642,-0.865,-0.8608,-0.86,-0.8595,-0.8592,-0.8646,-0.8646,-0.8646,-0.8646,-0.837,-0.8374,-0.8418,-0.8435,-0.8475,-0.8489,-0.8537,-0.856,-0.8579,-0.8605,-0.8603,-0.8628,-0.8586,-0.8585,-0.8643,-0.8643,-0.8644,-0.8644,-0.8644,-0.8319,-0.8327,-0.8349,-0.8382,-0.8402,-0.845,-0.8466,-0.8502,-0.8536,-0.8534,-0.8546,-0.8547,-0.8551,-0.8537,-0.8537,-0.8537,-0.8537,-0.8537,-0.8537,-0.8257,-0.8283,-0.8292,-0.833,-0.8347,-0.8375,-0.8426,-0.8444,-0.8472,-0.8497,-0.8498,-0.8529,-0.8576,-0.8586,-0.8535,-0.8535,-0.8535,-0.8536,-0.8536,-0.82,-0.8219,-0.8233,-0.825,-0.8298,-0.8315,-0.8362,-0.8395,-0.8416,-0.8422,-0.8456,-0.8484,-0.8501,-0.8506,-0.8514,-0.8448,-0.8448,-0.8448,-0.8448,-0.8156,-0.8168,-0.8191,-0.8217,-0.8246,-0.829,-0.8304,-0.8344,-0.8387,-0.8402,-0.8417,-0.8432,-0.8436,-0.845,-0.8457,-0.8465,-0.8388,-0.8388,-0.8388,-0.8122,-0.814,-0.8145,-0.8189,-0.8229,-0.8262,-0.8276,-0.8303,-0.8357,-0.8386,-0.8414,-0.8417,-0.8441,-0.8447,-0.8475,-0.8484,-0.85,0,0]},{"header":{"parameterUnit":"m.s-1","parameterCategory":1,"la1":30.2992,"la2":30.254,"lo1":-89.0895,"lo2":-89.0443,"dy":0.0025,"dx":0.0025,"nx":19,"ny":19,"refTime":"2026-05-03T09:00:00:Z","depth":0,"parameterNumber":3,"parameterNumberName":"V-component_of_WINDS"},"data":[0,0,0,-0.3928,-0.3931,-0.4063,-0.4064,-0.421,-0.4211,0,0,0,0,0,0,0,0,0,0,0,-0.3873,-0.3874,-0.3928,-0.3931,-0.4063,-0.4064,-0.421,-0.4211,0,0,0,0,0,0,0,0,0,0,0,-0.3873,-0.3874,-0.3874,-0.3931,-0.4063,-0.4064,-0.421,-0.4118,0,0,0,0,0,0,0,0,0,0,-0.3994,-0.3928,-0.3874,-0.3874,-0.3932,-0.4063,-0.4064,-0.4114,-0.4124,-0.414,0,-0.4148,0,-0.4182,-0.422,-0.422,0,0,0,-0.3943,-0.392,-0.3969,-0.3874,-0.3933,-0.4062,-0.4007,-0.412,-0.4131,-0.4153,-0.4151,-0.4157,-0.4184,-0.422,-0.4221,-0.4268,-0.4267,0,0,-0.3936,-0.3889,-0.3961,-0.3975,-0.3952,-0.4002,-0.4011,-0.4127,-0.4123,-0.4151,-0.4161,-0.4187,-0.4221,-0.4222,-0.4268,-0.4268,0,0,0,-0.3906,-0.3884,-0.3931,-0.3969,-0.3994,-0.4006,-0.4016,-0.4118,-0.4137,-0.4163,-0.4188,-0.4222,-0.4223,-0.4269,-0.4268,-0.4205,0,0,0,-0.3903,-0.3867,-0.3927,-0.39,-0.3991,-0.4057,-0.4003,-0.4129,-0.4143,-0.4188,-0.4222,-0.4225,-0.4269,-0.4268,-0.4208,-0.4183,0,0,0,-0.387,-0.3863,-0.3877,-0.3897,-0.3952,-0.4056,-0.4083,-0.4133,-0.4158,-0.422,-0.4225,-0.4269,-0.4269,-0.421,-0.4187,-0.4181,0,0,0,-0.3823,-0.382,-0.3875,-0.3882,-0.3951,-0.4016,-0.4082,-0.4134,-0.4179,-0.4223,-0.4269,-0.4268,-0.4211,-0.4189,-0.4183,-0.4168,-0.4157,0,0,-0.3793,-0.3815,-0.3823,-0.3876,-0.3918,-0.3999,-0.4034,-0.412,-0.417,-0.4233,-0.4235,-0.4207,-0.4187,-0.4182,-0.4112,-0.4103,0,0,0,-0.3798,-0.3803,-0.3824,-0.3864,-0.3929,-0.3983,-0.4068,-0.41,-0.4156,-0.4192,-0.4205,-0.4195,-0.4193,-0.4188,-0.418,-0.4182,-0.4264,-0.4264,-0.4264,-0.369,-0.3752,-0.3769,-0.3846,-0.3885,-0.3973,-0.401,-0.4068,-0.4121,-0.4123,-0.4142,-0.4092,-0.4084,-0.4078,-0.4079,-0.4139,-0.4139,-0.4138,-0.4138,-0.3652,-0.3669,-0.3738,-0.3779,-0.3845,-0.3881,-0.3966,-0.4002,-0.4046,-0.4083,-0.4085,-0.4119,-0.4066,-0.4071,-0.4134,-0.4135,-0.4135,-0.4136,-0.4136,-0.3588,-0.3607,-0.3645,-0.3709,-0.3752,-0.3832,-0.387,-0.393,-0.3986,-0.3988,-0.4015,-0.4016,-0.4024,-0.3996,-0.3996,-0.3996,-0.3996,-0.3996,-0.3996,-0.3506,-0.3551,-0.3575,-0.3643,-0.3677,-0.3729,-0.3817,-0.3853,-0.3907,-0.3947,-0.3948,-0.4,-0.4049,-0.406,-0.3993,-0.3994,-0.3994,-0.3994,-0.3995,-0.3444,-0.3468,-0.3505,-0.3538,-0.3623,-0.3662,-0.3737,-0.3804,-0.3842,-0.3859,-0.3911,-0.3938,-0.3964,-0.3971,-0.398,-0.3897,-0.3897,-0.3897,-0.3897,-0.3389,-0.3408,-0.346,-0.3509,-0.3565,-0.3636,-0.3678,-0.3747,-0.3822,-0.385,-0.3871,-0.3889,-0.3893,-0.3917,-0.3925,-0.3935,-0.3842,-0.3842,-0.3842,-0.3355,-0.3382,-0.3405,-0.3477,-0.3548,-0.3608,-0.3649,-0.3705,-0.3795,-0.3841,-0.3873,-0.3875,-0.3905,-0.3911,-0.3956,-0.3966,-0.3986,0,0]}]]